Location: Observatory
(52.1446°N, 0.4624°W)
Time: 17:07:36
(UTC+00:00)

ISS - Pass Details

Date: 26 November 2023
Orbit: 415 x 417 km, 51.6° (Epoch: 06 December)

Event Time Altitude Azimuth Distance (km) Brightness Sun altitude
Rises 18:01:44 0° 271° (W) 2,361 1.6 -18.3°
Reaches altitude 10° 18:03:50 10° 270° (W) 1,498 0.2 -18.6°
Maximum altitude 18:07:11 84° 184° (S) 426 -3.8 -19.1°
Enters shadow 18:07:28 73° 115° (ESE) 441 -3.9 -19.2°
